User: anonymous   Login
Location: Nebula Knoll Observatory
(43.6666°N, 71.0000°W)
Time: 13:13:46
(UTC-04:00)
Language:

Cosmos 1782 - Orbit

View from above orbital plane
View from above orbital plane
View from above satellite
View from above satellite

Ground track
Ground track

The orbit data is extracted from the following two-line orbital elements,

1 16986U 86074A   16270.74317601  .00000403  00000-0  25446-4 0  9992
2 16986  82.5100  17.4476 0012263 155.1923 204.9897 15.06262431631196
Epoch (UTC): 26 September 2016 17:50:10
Eccentricity: 0.0012263
inclination: 82.5100°
perigee height: 539 km
apogee height: 556 km
right ascension of ascending node: 17.4476°
argument of perigee: 155.1923°
revolutions per day: 15.06262431
mean anomaly at epoch: 204.9897°
orbit number at epoch: 63119

The dashed part of the orbit path shows where the satellite is in the earth's shadow,  

DLR